User: anonymous   Login
Location: Poprad
(49.0500°N, 20.3000°E)
Time: 00:25:58
(UTC+01:00)
Language:

ISS - Orbit

View from above orbital plane
View from above orbital plane
View from above satellite
View from above satellite

Ground track
Ground track

The orbit data is extracted from the following two-line orbital elements,

1 25544U 98067A   21065.92045672  .00001534  00000-0  35948-4 0  9995
2 25544  51.6446 128.5428 0003340  77.2213  93.0767 15.49046213272749
Epoch (UTC): 06 March 2021 22:05:27
Eccentricity: 0.0003340
inclination: 51.6446°
perigee height: 417 km
apogee height: 422 km
right ascension of ascending node: 128.5428°
argument of perigee: 77.2213°
revolutions per day: 15.49046213
mean anomaly at epoch: 93.0767°
orbit number at epoch: 27274

The dashed part of the orbit path shows where the satellite is in the earth's shadow,  

DLR